Skip Page Navigation
NASA JPL Caltech
NASA Logo - Jet Propulsion Laboratory + View the NASA Portal
+ Center for Near-Earth Object Studies
JPL Home Earth Solar System Stars & Galaxies Technology
JPL Solar System Dynamics
BODIES ORBITS EPHEMERIDES TOOLS PHYSICAL DATA DISCOVERY FAQ SITE MAP
IMPORTANT: The SSD Announcement email list is now available. Major changes are coming in the near future, including possible hostname and/or URL changes. To be notified of such changes, subscribe to this email list.

Please visit this page for more details.


JPL Small-Body Database Browser
Search: [ help ]  
469349 (2000 UF73)
Classification: Main-belt Asteroid          SPK-ID: 2469349
Ephemeris | Orbit Diagram | Orbital Elements | Mission Design | Physical Parameters | Discovery Circumstances ]

[ show orbit diagram ]
Orbital Elements at Epoch 2459000.5 (2020-May-31.0) TDB
Reference: JPL 9 (heliocentric ecliptic J2000)
 Element Value Uncertainty (1-sigma)   Units 
e .2566356176147019 1.555e-07  
a 2.570701958281419 9.3681e-08 au
q 1.910968273514543 4.6302e-07 au
i 6.364604239394561 1.0153e-05 deg
node 15.27463357443557 0.00010326 deg
peri 13.37512331134929 0.00019278 deg
M 280.8201041675738 0.00016552 deg
tp 2459331.622311206946
(2021-Apr-27.12231121)
0.00071016 TDB
period 1505.483567277991
4.12
8.2294e-05
2.253e-07
d
yr
n .239125824967258 1.3071e-08 deg/d
Q 3.230435643048294 1.1772e-07 au
  Orbit Determination Parameters
   # obs. used (total)      123  
   data-arc span      6343 days (17.37 yr)  
   first obs. used      2000-10-25  
   last obs. used      2018-03-08  
   planetary ephem.      DE431  
   SB-pert. ephem.      SB431-N16  
   condition code      0  
   norm. resid. RMS      .55486  
   source      ORB  
   producer      Otto Matic  
   solution date      2019-Jul-13 14:02:16  

Additional Information
 Earth MOID = .9164 au 
 Jupiter MOID = 2.22961 au 
 T_jup = 3.374 
[ show covariance matrix ]

Ephemeris | Orbit Diagram | Orbital Elements | Mission Design | Physical Parameters | Discovery Circumstances ]

Physical Parameter Table
Parameter Symbol Value Units Sigma Reference Notes
absolute magnitude H 17.2   n/a MPO437768  

469349 (2000 UF73)          Discovered 2000-Oct-25 by LINEAR at Socorro
Reference: Last Updated: 2016-08-22

Alternate Designations
 2000 UF73 = 2004 TX34 
Ephemeris | Orbit Diagram | Orbital Elements | Mission Design | Physical Parameters | Discovery Circumstances ]
ABOUT SSD CREDITS/AWARDS PRIVACY/COPYRIGHT GLOSSARY LINKS
FirstGov 2020-Jun-06 23:49 UT
(server date/time)  
NASA Home Page
Site Manager:   Ryan S. Park
Webmaster  Alan B. Chamberlin